Location: St. Louis
(38.6270°N, 90.1994°W)
Time: 14:17:36
(UTC-06:00)

Transit 4A - Pass Details

Date: 09 December 2021
Orbit: 864 x 980 km, 66.8° (Epoch: 16 January)

Event Time Altitude Azimuth Distance (km) Brightness Sun altitude
Rises 01:20:51 0° 343° (NNW) 3,614 - -65.5°
Reaches altitude 10° 01:24:25 10° 3° (N) 2,687 - -65.0°
Maximum altitude 01:28:21 17° 42° (NE) 2,241 - -64.3°
Drops below altitude 10° 01:32:19 10° 81° (E) 2,717 - -63.6°
Sets 01:35:56 0° 101° (ESE) 3,671 - -63.0°
